[[{"header":{"parameterUnit":"m.s-1","parameterCategory":1,"la1":30.2991,"la2":30.254,"lo1":-89.0895,"lo2":-89.0444,"dy":0.0017,"dx":0.0017,"nx":28,"ny":28,"refTime":"2024-08-13T09:00:00:Z","depth":0,"parameterNumber":2,"parameterNumberName":"U-component_of_WINDS"},"data":[0,0,0,0,0,0,0,0,0,0,0,0,0,0,0,0,0,0,0,0,0,0,0,0,0,0,0,0,0,0,0,0,0,0,0,0,0,0,0,0,0,0,0,0,0,0,0,0,0,0,0,0,0,0,0,0,0,0,2.5397,2.5398,0,2.5487,2.5488,2.5489,2.5455,2.5453,2.5451,2.5449,2.5542,2.5546,2.5551,0,0,0,0,0,0,0,0,0,0,0,0,0,2.5195,2.5199,2.5397,2.5398,2.5399,2.5487,2.5488,2.5489,2.5456,2.5453,2.545,2.5448,2.554,2.5546,2.5551,0,0,0,0,0,0,0,0,0,0,0,0,0,2.5284,2.52,2.5397,2.5393,2.5393,2.5486,2.5488,2.549,2.5456,2.5453,2.545,2.5447,2.5539,2.5545,2.5552,2.5654,0,0,2.5572,2.5575,0,0,0,0,0,0,0,0,2.5279,2.5291,2.5392,2.5393,2.5394,2.5457,2.5451,2.5545,2.5457,2.5432,2.5449,2.5445,2.5516,2.5524,2.5548,2.5658,2.5662,2.5572,2.5576,2.5579,2.5581,0,0,0,0,0,0,0,2.5273,2.5287,2.5432,2.5394,2.5395,2.5386,2.5396,2.5469,2.549,2.5434,2.5432,2.5443,2.5516,2.5542,2.555,2.5664,2.5572,2.5578,2.5582,2.5585,2.5861,2.5864,0,0,0,0,0,0,2.5266,2.5282,2.543,2.5435,2.5328,2.5393,2.5403,2.544,2.5489,2.5494,2.5446,2.5441,2.5532,2.5542,2.5553,2.5675,2.5579,2.5585,2.5589,2.5858,2.5862,2.5865,0,0,0,0,0,0,2.5262,2.528,2.5426,2.5358,2.5376,2.5399,2.5441,2.5443,2.5469,2.5498,2.5502,2.5468,2.553,2.5544,2.5629,2.5677,2.5588,2.5594,2.5854,2.5859,2.5864,2.5919,0,0,0,0,0,0,2.5256,2.5278,2.5318,2.5359,2.538,2.55,2.5444,2.5447,2.548,2.5475,2.552,2.5524,2.5529,2.5619,2.5635,2.5685,2.5599,2.5849,2.5856,2.5862,2.5913,2.5926,2.5936,0,0,0,0,0,2.5249,2.533,2.532,2.5338,2.5429,2.5503,2.5515,2.5518,2.5484,2.5523,2.5542,2.5523,2.567,2.5628,2.5646,2.5698,2.5846,2.5854,2.5861,2.5908,2.5923,2.5936,0,0,0,0,0,0,2.5294,2.5336,2.5324,2.5421,2.5459,2.5497,2.5547,2.5534,2.5582,2.5575,2.5577,2.5588,2.5675,2.5695,2.5648,2.5799,2.5753,2.5765,2.5782,2.5797,2.5808,2.5801,2.5605,0,0,0,0,0,2.5315,2.5371,2.5405,2.5487,2.5507,2.5524,2.5556,2.5555,2.5594,2.561,2.5635,2.5673,2.5728,2.5764,2.5816,2.5917,2.5925,2.5962,2.5973,2.5982,2.5992,2.6045,2.6061,2.589,2.589,2.589,0,0,2.5359,2.5389,2.5424,2.5497,2.5526,2.5584,2.5537,2.5601,2.5644,2.562,2.57,2.572,2.5764,2.5856,2.5899,2.5876,2.6041,2.5992,2.5999,2.6004,2.6054,2.607,2.6085,2.5896,2.5895,2.5894,0,0,2.5468,2.5497,2.5568,2.5598,2.5642,2.5653,2.567,2.5711,2.5723,2.5804,2.5787,2.5838,2.5933,2.5964,2.5992,2.6113,2.6096,2.613,2.619,2.6241,2.6255,2.6266,2.6308,2.6323,2.614,2.614,2.614,0,2.5517,2.5604,2.5606,2.5671,2.5703,2.5683,2.5754,2.5784,2.5843,2.5865,2.5839,2.5957,2.5985,2.6083,2.6113,2.6137,2.6156,2.6124,2.6253,2.6264,2.6276,2.6315,2.6331,2.6143,2.6143,2.6142,2.6142,0,2.5661,2.5721,2.5773,2.583,2.5868,2.5936,2.5948,2.5986,2.5982,2.5996,2.6078,2.6111,2.6169,2.6193,2.619,2.6291,2.6275,2.6252,2.6205,2.6295,2.6332,2.6347,2.6148,2.6147,2.6146,2.6145,0,0,2.58,2.5857,2.5876,2.5901,2.5948,2.5995,2.6062,2.6118,2.6149,2.6191,2.6246,2.6327,2.6304,2.6336,2.6337,2.6383,2.6474,2.6353,2.6354,2.6372,2.6585,2.6602,2.6619,2.6464,2.6467,2.6469,2.6581,0,2.5911,2.6027,2.6031,2.6138,2.6193,2.6175,2.6233,2.6268,2.6283,2.6332,2.6348,2.6404,2.6371,2.639,2.6435,2.6453,2.6516,2.6446,2.6514,2.6517,2.6502,2.6639,2.6656,2.676,2.6596,2.6598,2.66,0,2.6056,2.6102,2.6213,2.6252,2.6275,2.6327,2.6378,2.6425,2.6465,2.6472,2.6508,2.6501,2.6569,2.6521,2.6614,2.6565,2.6594,2.6607,2.6612,2.6616,2.6562,2.6645,2.6794,2.6808,2.6623,2.6621,2.662,0,2.6143,2.6233,2.6311,2.6333,2.6381,2.6417,2.6439,2.6475,2.6509,2.6554,2.6575,2.6627,2.6656,2.6696,2.6704,2.6669,2.6796,2.675,2.6803,2.6803,2.6829,2.6827,2.6982,2.6851,2.6851,2.6851,2.685,0,2.6266,2.6335,2.635,2.6398,2.6474,2.6478,2.6553,2.6572,2.6605,2.6655,2.6645,2.6692,2.67,2.675,2.6757,2.6831,2.6845,2.6852,2.6853,2.6852,2.6851,2.6869,2.6861,2.6855,2.6854,2.6853,2.6852,0,2.6375,2.6389,2.6472,2.6511,2.6522,2.6576,2.6608,2.6654,2.6667,2.6732,2.6747,2.6768,2.6826,2.6838,2.6907,2.6911,2.6999,2.6994,2.6986,2.6984,2.7036,2.703,2.7207,2.7229,2.7086,2.7087,2.7088,0,2.6452,2.6504,2.6548,2.658,2.6604,2.6657,2.6691,2.6697,2.6732,2.6781,2.682,2.6877,2.6922,2.7015,2.7036,2.7089,2.7083,2.7142,2.7091,2.7088,2.7082,2.7078,2.7082,2.715,2.7152,2.7153,2.7154,0,2.6585,2.6589,2.6638,2.6689,2.6729,2.677,2.6808,2.6836,2.6847,2.6888,2.6946,2.6982,2.7051,2.7107,2.7159,2.7181,2.7169,2.717,2.7185,2.7184,2.7176,2.7179,2.701,2.7166,2.7165,2.7164,2.7163,2.7163,2.6679,2.6723,2.6761,2.6815,2.6845,2.6881,2.6925,2.6944,2.6993,2.705,2.7051,2.7115,2.7152,2.7221,2.7246,2.7296,2.7278,2.73,2.7305,2.731,2.7313,2.717,2.7306,2.7306,2.7305,2.7305,2.7305,0,2.6809,2.6832,2.6883,2.6937,2.6979,2.6965,2.7007,2.7043,2.7099,2.7136,2.718,2.7247,2.7301,2.7327,2.738,2.7415,2.7411,2.7428,2.7425,2.743,2.7328,2.7308,2.7431,2.7431,2.7431,2.7431,2.7431,2.7431,2.6882,2.6957,2.6965,2.7054,2.7077,2.7139,2.7164,2.7197,2.7226,2.7301,2.7345,2.7362,2.7394,2.7449,2.7498,2.7504,2.7523,2.7543,2.7546,2.745,2.7437,2.7425,2.7407,2.7548,2.7548,2.7644,2.7645,2.7646]},{"header":{"parameterUnit":"m.s-1","parameterCategory":1,"la1":30.2991,"la2":30.254,"lo1":-89.0895,"lo2":-89.0444,"dy":0.0017,"dx":0.0017,"nx":28,"ny":28,"refTime":"2024-08-13T09:00:00:Z","depth":0,"parameterNumber":3,"parameterNumberName":"V-component_of_WINDS"},"data":[0,0,0,0,0,0,0,0,0,0,0,0,0,0,0,0,0,0,0,0,0,0,0,0,0,0,0,0,0,0,0,0,0,0,0,0,0,0,0,0,0,0,0,0,0,0,0,0,0,0,0,0,0,0,0,0,0,0,3.9511,3.9511,0,3.9494,3.9494,3.9493,3.9402,3.94,3.9397,3.9395,3.9378,3.938,3.9381,0,0,0,0,0,0,0,0,0,0,0,0,0,3.9466,3.9467,3.9511,3.9511,3.9511,3.9494,3.9494,3.9493,3.9402,3.9399,3.9397,3.9394,3.9378,3.938,3.9382,0,0,0,0,0,0,0,0,0,0,0,0,0,3.9471,3.9468,3.9511,3.9463,3.9459,3.9494,3.9494,3.9493,3.9403,3.9399,3.9396,3.9393,3.9377,3.9379,3.9382,3.9462,0,0,3.9389,3.939,0,0,0,0,0,0,0,0,3.9471,3.9473,3.947,3.9467,3.9462,3.9446,3.9471,3.9483,3.9403,3.9424,3.9395,3.9391,3.9404,3.9404,3.9408,3.9461,3.9461,3.9389,3.9391,3.9392,3.9392,0,0,0,0,0,0,0,3.947,3.9473,3.9504,3.9471,3.9465,3.9443,3.944,3.9473,3.9432,3.9422,3.9415,3.9414,3.9401,3.9406,3.9407,3.946,3.9389,3.9391,3.9393,3.9394,3.9578,3.9581,0,0,0,0,0,0,3.9477,3.9473,3.9505,3.9504,3.9458,3.9446,3.9443,3.9455,3.9432,3.9425,3.9417,3.941,3.9403,3.9404,3.9406,3.9497,3.9392,3.9394,3.9395,3.9574,3.9579,3.9582,0,0,0,0,0,0,3.9476,3.948,3.9505,3.9487,3.9488,3.945,3.9464,3.9456,3.9461,3.9428,3.9421,3.943,3.9401,3.9402,3.9448,3.9495,3.9395,3.9397,3.957,3.9576,3.958,3.9681,0,0,0,0,0,0,3.9475,3.9481,3.9511,3.9488,3.9489,3.9549,3.9467,3.9458,3.9465,3.9456,3.9438,3.9432,3.9398,3.9445,3.9451,3.9496,3.9399,3.9566,3.9573,3.9579,3.9673,3.9689,3.9702,0,0,0,0,0,3.9474,3.954,3.9513,3.9517,3.9526,3.9552,3.9552,3.9512,3.9469,3.9499,3.9478,3.9432,3.949,3.9451,3.9456,3.9503,3.9563,3.9571,3.9578,3.9667,3.9686,3.9702,0,0,0,0,0,0,3.957,3.9536,3.9505,3.9566,3.9563,3.9536,3.9572,3.9534,3.9542,3.9533,3.9483,3.948,3.9533,3.9523,3.9481,3.9579,3.9518,3.9528,3.9584,3.9602,3.9616,3.9616,3.9401,0,0,0,0,0,3.9598,3.9621,3.9591,3.9648,3.9647,3.9611,3.962,3.9589,3.9583,3.9581,3.9564,3.956,3.9577,3.9589,3.9603,3.9672,3.9666,3.9707,3.9722,3.9734,3.9742,3.9777,3.9794,3.9608,3.9608,3.9608,0,0,3.9657,3.9641,3.9659,3.9666,3.966,3.9685,3.961,3.964,3.9657,3.9586,3.9628,3.9615,3.9607,3.9665,3.969,3.9658,3.9792,3.9744,3.9753,3.9755,3.9786,3.9804,3.982,3.9613,3.9612,3.9611,0,0,3.9775,3.9767,3.9812,3.9807,3.9798,3.9773,3.9784,3.9764,3.9752,3.9793,3.974,3.9761,3.9791,3.9788,3.979,3.9908,3.9866,3.9914,3.9989,4.0024,4.0039,4.0051,4.0092,4.0108,3.9923,3.9923,3.9923,0,3.9849,3.9885,3.9841,3.9874,3.9878,3.9815,3.986,3.9857,3.9854,3.9858,3.9823,3.9859,3.985,3.9905,3.9934,3.9939,3.9949,3.9915,4.004,4.0052,4.0064,4.0102,4.0118,3.9929,3.9928,3.9927,3.9927,0,3.9975,4.0001,4.0039,4.0036,4.0045,4.0084,4.0046,4.0061,4.003,4.0009,4.0051,4.0038,4.0047,4.0058,4.0029,4.011,4.009,4.0049,3.9986,4.0088,4.0123,4.0137,3.9937,3.9935,3.9933,3.9932,0,0,4.0153,4.0125,4.014,4.0137,4.0122,4.0141,4.0178,4.0187,4.02,4.02,4.0228,4.0256,4.0217,4.0219,4.0189,4.0219,4.0312,4.0174,4.0173,4.0199,4.04,4.043,4.0448,4.0285,4.0288,4.029,4.04,0,4.0265,4.0325,4.0287,4.0353,4.0375,4.0315,4.0347,4.0342,4.0323,4.034,4.0319,4.0339,4.0287,4.0288,4.0316,4.0295,4.0352,4.0287,4.0311,4.0312,4.0313,4.0466,4.0498,4.0603,4.0413,4.0416,4.0417,0,4.0404,4.0409,4.0477,4.0457,4.0465,4.0495,4.0499,4.0516,4.0509,4.0493,4.0496,4.0458,4.0492,4.0432,4.0478,4.0435,4.0443,4.0434,4.0437,4.0437,4.037,4.0468,4.0635,4.065,4.0439,4.0437,4.0436,0,4.0525,4.0549,4.0592,4.0593,4.0571,4.0592,4.0585,4.0574,4.0582,4.0586,4.059,4.06,4.0604,4.0612,4.0577,4.0537,4.0628,4.0565,4.0615,4.0616,4.0636,4.0635,4.0805,4.0644,4.0644,4.0644,4.0643,0,4.0654,4.0697,4.0646,4.0673,4.072,4.0676,4.0724,4.071,4.0701,4.0724,4.0673,4.0696,4.0649,4.0667,4.064,4.0682,4.0685,4.0673,4.0665,4.0677,4.0678,4.068,4.0671,4.0648,4.0647,4.0646,4.0645,0,4.0796,4.0764,4.0807,4.0783,4.0778,4.0813,4.0793,4.0816,4.0795,4.0824,4.0829,4.0795,4.0813,4.078,4.0794,4.0776,4.0835,4.0816,4.0837,4.0831,4.0883,4.0878,4.1058,4.1079,4.0907,4.0909,4.091,0,4.0879,4.0911,4.089,4.0901,4.0896,4.0916,4.0923,4.0881,4.0891,4.0885,4.0909,4.0924,4.0932,4.0965,4.0942,4.0953,4.0933,4.0996,4.0934,4.0945,4.0932,4.093,4.0933,4.1008,4.101,4.1012,4.1013,0,4.103,4.1012,4.1024,4.1031,4.1041,4.1045,4.1045,4.1057,4.1013,4.1027,4.1045,4.1052,4.1066,4.1081,4.1086,4.1078,4.1038,4.1033,4.1045,4.1056,4.1066,4.106,4.0869,4.1028,4.1027,4.1026,4.1025,4.1024,4.1143,4.1169,4.1158,4.1173,4.1169,4.117,4.119,4.1171,4.1185,4.1193,4.1168,4.1192,4.1184,4.1187,4.1183,4.1201,4.1173,4.1191,4.1195,4.12,4.1207,4.1065,4.1202,4.1202,4.1201,4.1201,4.1201,0,4.129,4.128,4.1295,4.1296,4.1308,4.127,4.1268,4.128,4.1302,4.1297,4.1307,4.1328,4.1342,4.132,4.133,4.1349,4.1331,4.1353,4.135,4.1349,4.1233,4.122,4.1367,4.1367,4.1367,4.1367,4.1367,4.1367,4.1367,4.1408,4.1389,4.1427,4.1416,4.1439,4.1441,4.1442,4.1438,4.1463,4.1474,4.1459,4.1448,4.1457,4.1469,4.1462,4.1467,4.1496,4.1483,4.1374,4.1357,4.1342,4.133,4.1498,4.1498,4.1597,4.1598,4.1599]}]]